TimeCST,TemperatureF,Dew PointF,Humidity,Sea Level PressureIn,VisibilityMPH,Wind Direction,Wind SpeedMPH,Gust SpeedMPH,PrecipitationIn,Events,Conditions,WindDirDegrees,DateUTC
12:56 AM,36.0,25.0,64,30.35,10.0,North,4.6,-,N/A,,Clear,10,2012-12-30 06:56:00
1:56 AM,34.0,25.0,70,30.36,10.0,North,3.5,-,N/A,,Clear,360,2012-12-30 07:56:00
2:56 AM,33.1,24.1,70,30.37,10.0,North,5.8,-,N/A,,Clear,360,2012-12-30 08:56:00
3:56 AM,33.1,23.0,66,30.37,9.0,North,4.6,-,N/A,,Clear,360,2012-12-30 09:56:00
4:56 AM,30.9,23.0,72,30.38,8.0,NNW,4.6,-,N/A,,Clear,340,2012-12-30 10:56:00
5:56 AM,30.9,23.0,72,30.42,8.0,NNW,8.1,-,N/A,,Clear,340,2012-12-30 11:56:00
6:56 AM,30.9,23.0,72,30.43,6.0,North,5.8,-,N/A,,Haze,10,2012-12-30 12:56:00
7:56 AM,34.0,25.0,70,30.45,7.0,NNE,5.8,-,N/A,,Clear,20,2012-12-30 13:56:00
8:56 AM,37.0,24.1,59,30.47,8.0,NE,9.2,-,N/A,,Clear,50,2012-12-30 14:56:00
9:56 AM,41.0,24.1,51,30.48,9.0,NNE,10.4,-,N/A,,Clear,30,2012-12-30 15:56:00
10:56 AM,45.0,24.1,44,30.46,10.0,Variable,4.6,-,N/A,,Clear,0,2012-12-30 16:56:00
11:56 AM,48.9,23.0,36,30.44,10.0,ENE,3.5,-,N/A,,Clear,60,2012-12-30 17:56:00
12:56 PM,52.0,24.1,34,30.40,10.0,North,6.9,-,N/A,,Clear,10,2012-12-30 18:56:00
1:56 PM,54.0,23.0,30,30.38,10.0,NNE,3.5,-,N/A,,Clear,20,2012-12-30 19:56:00
2:56 PM,54.0,23.0,30,30.37,10.0,NE,8.1,-,N/A,,Clear,50,2012-12-30 20:56:00
3:56 PM,53.1,23.0,31,30.36,10.0,ENE,5.8,-,N/A,,Clear,60,2012-12-30 21:56:00
4:56 PM,48.9,26.1,41,30.38,10.0,NNE,4.6,-,N/A,,Clear,30,2012-12-30 22:56:00
5:56 PM,46.9,26.1,44,30.36,10.0,ENE,4.6,-,N/A,,Clear,70,2012-12-30 23:56:00
6:56 PM,41.0,28.9,62,30.39,10.0,Calm,Calm,-,N/A,,Clear,0,2012-12-31 00:56:00
7:56 PM,37.9,28.9,70,30.39,10.0,Calm,Calm,-,N/A,,Clear,0,2012-12-31 01:56:00
8:56 PM,37.0,28.9,73,30.41,10.0,North,3.5,-,N/A,,Clear,360,2012-12-31 02:56:00
9:56 PM,36.0,28.9,76,30.40,10.0,Calm,Calm,-,N/A,,Clear,0,2012-12-31 03:56:00
10:56 PM,34.0,28.0,79,30.38,10.0,Calm,Calm,-,N/A,,Clear,0,2012-12-31 04:56:00
11:56 PM,34.0,27.0,75,30.38,10.0,Calm,Calm,-,N/A,,Clear,0,2012-12-31 05:56:00